Location: Unspecified
(51.3762°N, 0.0000°E)
Time: 05:58:41
(UTC+00:00)

nSIGHT-1 - Pass Details

Date: 02 September 2019
Orbit: 341 x 348 km, 51.6° (Epoch: 22 September)

Event Time Altitude Azimuth Distance (km) Brightness Sun altitude
Exits shadow 02:20:05 16° 90° (E) 1,021 ? -23.4°
Drops below altitude 10° 02:20:45 10° 91° (E) 1,294 ? -23.3°
Sets 02:22:45 0° 92° (E) 2,134 ? -23.1°
